Ontario, OR

7:54 PM MST on December 10, 2019 (GMT -0700)
Ontario Municipal

Weather History for KONO - November, 2019

Change the Weather History Date:

Saturday, November 16, 2019

  Actual Average Record
Temperature  
Mean Temperature 46 °F 37 °F  
Max Temperature 60 °F 48 °F 60 °F (1983)
Min Temperature 33 °F 26 °F -1 °F (2014)
Degree Days  
Heating Degree Days 18 28  
Month to date heating degree days 384 399  
Since 1 July heating degree days 1072 992  
Cooling Degree Days 0 0  
Month to date cooling degree days 0 0  
Year to date cooling degree days 1146 852  
Moisture  
Dew Point 32 °F    
Average Humidity 57    
Maximum Humidity 77    
Minimum Humidity 34    
Precipitation  
Precipitation 0.00 in 0.04 in 0.55 in (1981)
Month to date precipitation T 0.55  
Year to date precipitation 11.66 7.83  
Sea Level Pressure  
Sea Level Pressure 30.35 in    
Wind  
Wind Speed 4 mph ()    
Max Wind Speed 14 mph    
Max Gust Speed 16 mph    
Visibility 10.0 miles    
Events      
T = Trace of Precipitation, MM = Missing Value Source: Averaged Metar Reports

Daily Weather History Graph

Daily Weather History Graph

Search for Another Location

Airport or City:

Astronomy

Nov. 16, 2019 Rise Set
Actual Time 7:44 AM MST 5:20 PM MST
Civil Twilight 7:12 AM MST 5:52 PM MST
Nautical Twilight 6:37 AM MST 6:27 PM MST
Astronomical Twilight 6:03 AM MST 7:01 PM MST
Moon 8:54 PM MST (11/16) 11:46 AM MST (11/16)
Length of Visible Light 10h 39m
Length of Day
9h 36m
Waning Gibbous, 82% of the Moon is Illuminated
Nov 16
Waning Gibbous
Nov 19
Last Quarter
Nov 26
New
Dec 3
First Quarter
Dec 11
Full

Hourly Weather History & Observations

Time (MST) Temp. Windchill Dew Point Humidity Pressure Visibility Wind Dir Wind Speed Gust Speed Precip Events Conditions
12:53 AM 44.1 °F 40.1 °F 34.0 °F 68% 30.27 in 10.0 mi West 6.9 mph - N/A   Mostly Cloudy
1:53 AM 46.9 °F - 37.0 °F 68% 30.27 in 10.0 mi West 5.8 mph - N/A   Overcast
2:53 AM 45.0 °F 41.8 °F 35.1 °F 68% 30.28 in 10.0 mi West 5.8 mph - N/A   Overcast
3:53 AM 50.0 °F - 37.0 °F 61% 30.30 in 10.0 mi NW 6.9 mph - N/A   Overcast
4:53 AM 46.0 °F - 35.1 °F 66% 30.31 in 10.0 mi Calm Calm - N/A   Partly Cloudy
5:53 AM 39.9 °F - 33.1 °F 77% 30.35 in 10.0 mi Calm Calm - N/A   Clear
6:53 AM 39.0 °F 34.8 °F 30.9 °F 73% 30.38 in 10.0 mi West 5.8 mph - N/A   Clear
7:53 AM 39.9 °F 34.5 °F 32.0 °F 73% 30.39 in 10.0 mi West 8.1 mph - N/A   Clear
8:53 AM 42.1 °F 37.1 °F 33.1 °F 70% 30.40 in 10.0 mi West 8.1 mph - N/A   Clear
9:53 AM 48.9 °F - 35.1 °F 59% 30.39 in 10.0 mi West 10.4 mph - N/A   Clear
10:53 AM 53.1 °F - 35.1 °F 50% 30.39 in 10.0 mi West 9.2 mph - N/A   Clear
11:53 AM 57.0 °F - 34.0 °F 42% 30.39 in 10.0 mi NNW 5.8 mph - N/A   Clear
12:53 PM 57.0 °F - 33.1 °F 40% 30.37 in 10.0 mi Calm Calm - N/A   Clear
1:53 PM 59.0 °F - 32.0 °F 36% 30.35 in 10.0 mi WSW 4.6 mph - N/A   Clear
2:53 PM 60.1 °F - 32.0 °F 35% 30.33 in 10.0 mi North 4.6 mph - N/A   Clear
3:53 PM 59.0 °F - 30.9 °F 35% 30.33 in 10.0 mi WSW 4.6 mph - N/A   Clear
4:53 PM 57.0 °F - 30.0 °F 36% 30.33 in 10.0 mi Calm Calm - N/A   Clear
5:53 PM 52.0 °F - 30.0 °F 43% 30.35 in 10.0 mi Calm Calm - N/A   Clear
6:53 PM 44.1 °F - 28.9 °F 55% 30.38 in 10.0 mi Calm Calm - N/A   Clear
7:53 PM 39.9 °F 37.8 °F 27.0 °F 60% 30.38 in 10.0 mi South 3.5 mph - N/A   Clear
8:53 PM 39.9 °F - 27.0 °F 60% 30.39 in 10.0 mi Calm Calm - N/A   Clear
9:53 PM 37.9 °F - 26.1 °F 62% 30.39 in 10.0 mi Calm Calm - N/A   Clear
10:53 PM 34.0 °F 31.0 °F 24.1 °F 67% 30.40 in 10.0 mi West 3.5 mph - N/A   Clear
11:53 PM 36.0 °F - 26.1 °F 67% 30.40 in 10.0 mi Calm Calm - N/A   Clear